Погода в Славкино

Россия / Ульяновская область     52°57′29″N   47°10′31″E
темп.,
°C
ветер,
м/с
пор.,
м/с
влажн.,
%
обл.,
%
осадки,
мм/ч
давл.,
гПа
погр.,
м
11 мая, вт
вт1101:00+15всв41466100 0.0 1017396
04:00+14всв4136773 0.0 1018369
07:00+14юв386854 0.0 1020560
10:00+13ю3580100 0.1 1023558
13:00+14ю5578100 0.1 1025879
16:00+10ю3690100 1.5 1026231
19:00+11ю2892100 1.8 1026289
22:00+11всв1194100 2.0 102627
12 мая, ср
ср1201:00+11ссв2593100 0.0 1026128
04:00+11св2596100 2.1 1025133
07:00+12всв41196100 1.9 1025494
10:00+14в61489100 2.3 1024782
13:00+13вюв61591100 0.8 1025694
16:00+14в5139394 1.8 1025651
19:00+14вюв4118640 0.0 1024450
22:00+13в3118899 0.0 1024311
13 мая, чт
чт1301:00+12вюв279110 0.0 1024113
04:00+12в3118350 0.0 1023247
07:00+12в31276100 0.1 1023312
10:00+11в31292100 3.4 1024344
13:00+20вюв71363100 0.2 1022947
16:00+23юв7134699 0.2 10211563
19:00+19юв6135799 0.1 1021509
22:00+14юв3128366 0.8 1021216
14 мая, пт
пт1401:00+13юв22760 0.1 102127
04:00+12ююв22761 0.1 102116
07:00+15юв25725 0.0 1022123
10:00+22ююв47509 0.0 1022445
13:00+24ююв6938100 0.0 1021987
16:00+26ююв510425 0.0 10211487
19:00+23ююв511555 0.0 1020425
22:00+19ююв4135661 0.0 1021296
15 мая, сб
сб1501:00+16ююв312550 0.0 1020192
04:00+14ююв24585 0.0 102167
07:00+16ююв28604 0.0 1021188
10:00+22ююв510394 0.0 1020509
13:00+26ю6103225 0.0 10201163
16:00+27ю59325 0.0 10181943
19:00+23ююв4105015 0.0 1018259
22:00+18ююв3853100 0.0 1018122